Weather History for Lee's Summit, MO

Change the Weather History Date:

Friday, January 17, 2014

  Actual Average (KMKC) Record (KMKC)
Temperature  
Mean Temperature 24 °F -  
Max Temperature 32 °F 37 °F 48 °F (1998)
Min Temperature 17 °F 21 °F 3 °F (2003)
Degree Days  
Heating Degree Days 40    
Moisture  
Dew Point 2 °F    
Average Humidity 40    
Maximum Humidity 68    
Minimum Humidity 19    
Precipitation  
Precipitation 0.00 in - - ()
Sea Level Pressure  
Sea Level Pressure 30.13 in    
Wind  
Wind Speed 16 mph (WNW)    
Max Wind Speed 28 mph    
Max Gust Speed 34 mph    
Visibility 10 miles    
Events      
Averages and records for this station are not official NWS values.
T = Trace of Precipitation, MM = Missing Value Source: NWS Daily Summary

Daily Weather History Graph

Daily Weather History Graph

Search for Another Location

Airport:

Trip Planner

Search our weather history database for the weather conditions in past years. The results will help you decide how hot, cold, wet, or windy it might be!

Date:

Astronomy

Jan. 17, 2014 Rise Set
Actual Time 7:33 AM CST 5:21 PM CST
Civil Twilight 7:04 AM CST 5:50 PM CST
Nautical Twilight 6:32 AM CST 6:23 PM CST
Astronomical Twilight 6:00 AM CST 6:55 PM CST
Moon 7:07 PM CST (1/17) 8:03 AM CST (1/17)
Length of Visible Light 10h 46m
Length of Day
9h 47m
Full, 98% of the Moon is Illuminated
Jan 17
Full
Jan 23
Last Quarter
Jan 30
New
Feb 6
First Quarter
Feb 14
Full

Hourly Weather History & Observations

Time (CST) Temp. Windchill Dew Point Humidity Pressure Visibility Wind Dir Wind Speed Gust Speed Precip Events Conditions
12:53 AM 19.9 °F 4.3 °F 10.9 °F 68% 30.06 in 10.0 mi NW 19.6 mph - 0.00 in   Overcast
1:53 AM 19.9 °F 7.9 °F 10.0 °F 65% 30.07 in 10.0 mi NNW 11.5 mph - N/A   Overcast
2:53 AM 19.9 °F 3.2 °F 8.1 °F 60% 30.09 in 10.0 mi NW 23.0 mph 34.5 mph 0.00 in   Mostly Cloudy
3:53 AM 19.0 °F 5.0 °F 6.1 °F 57% 30.09 in 10.0 mi NW 15.0 mph - N/A   Clear
4:53 AM 18.0 °F -0.8 °F 3.0 °F 52% 30.10 in 10.0 mi WNW 27.6 mph 34.5 mph N/A   Clear
5:53 AM 18.0 °F 2.6 °F 1.0 °F 48% 30.10 in 10.0 mi NW 17.3 mph 24.2 mph N/A   Clear
6:53 AM 17.1 °F 0.6 °F 1.0 °F 50% 30.12 in 10.0 mi WNW 19.6 mph 26.5 mph N/A   Clear
7:53 AM 17.1 °F 1.0 °F 1.0 °F 50% 30.13 in 10.0 mi NW 18.4 mph - N/A   Clear
8:53 AM 19.0 °F 3.6 °F 1.0 °F 46% 30.16 in 10.0 mi NW 18.4 mph 26.5 mph N/A   Clear
9:53 AM 21.0 °F 5.7 °F 1.9 °F 44% 30.18 in 10.0 mi WNW 19.6 mph 27.6 mph N/A   Clear
10:53 AM 23.0 °F 8.0 °F 3.0 °F 42% 30.19 in 10.0 mi NW 20.7 mph 31.1 mph N/A   Clear
11:53 AM 26.1 °F 14.5 °F 3.0 °F 37% 30.19 in 10.0 mi NW 13.8 mph 25.3 mph N/A   Clear
12:53 PM 28.0 °F 14.9 °F 3.0 °F 34% 30.16 in 10.0 mi NW 19.6 mph 27.6 mph N/A   Clear
1:53 PM 30.0 °F 16.9 °F 3.9 °F 33% 30.15 in 10.0 mi WNW 21.9 mph 29.9 mph N/A   Clear
2:53 PM 32.0 °F 23.6 °F 3.9 °F 31% 30.16 in 10.0 mi NW 10.4 mph - N/A   Clear
3:53 PM 30.9 °F 20.7 °F -0.9 °F 26% 30.17 in 10.0 mi WNW 13.8 mph - N/A   Clear
4:53 PM 30.0 °F 22.4 °F -8.0 °F 19% 30.17 in 10.0 mi NW 8.1 mph - N/A   Clear
5:53 PM 27.0 °F 19.5 °F -6.0 °F 24% 30.17 in 10.0 mi West 6.9 mph - N/A   Clear
6:53 PM 26.1 °F 20.5 °F -5.1 °F 26% 30.15 in 10.0 mi SW 4.6 mph - N/A   Clear
7:53 PM 26.1 °F 21.9 °F -5.1 °F 26% 30.14 in 10.0 mi SW 3.5 mph - N/A   Clear
8:53 PM 26.1 °F 21.9 °F -4.0 °F 27% 30.13 in 10.0 mi South 3.5 mph - N/A   Clear
9:53 PM 26.1 °F 20.5 °F 1.9 °F 35% 30.11 in 10.0 mi South 4.6 mph - N/A   Partly Cloudy
10:53 PM 27.0 °F 20.5 °F 1.9 °F 34% 30.08 in 10.0 mi South 5.8 mph - N/A   Mostly Cloudy
11:53 PM 28.0 °F 19.3 °F 1.9 °F 33% 30.05 in 10.0 mi South 9.2 mph - N/A   Overcast